RH
68 72 67 65 70 69 66 63 61 62 63 68 75 78 82 87 86 87 93 92 93 94
70 68 68 66 65 67 65 56 61 61 61 64 72 74 78 83 82 83 87 88 89 91
69 67 68 68 67 64 64 57 63 62 61 61 67 71 74 79 78 78 83 81 80 82
70 71 68 67 66 64 63 61 63 63 62 60 61 70 70 73 74 75 77 77 74 73
69 71 69 68 64 65 60 63 62 62 61 59 58 65 67 67 69 73 74 74 72 70
71 67 66 64 64 66 63 61 63 63 62 59 59 59 66 60 66 69 70 72 70 66
72 66 63 65 68 68 63 63 63 64 62 61 59 55 57 58 62 66 67 69 69 66
74 73 72 71 70 70 68 60 62 66 64 63 57 49 57 56 62 62 64 69 69 69
86 78 70 68 72 73 67 70 69 66 61 64 46 50 54 55 57 58 59 64 71 70
85 81 75 69 70 66 67 71 64 66 66 63 60 52 54 56 56 55 61 63 65 67
91 86 88 80 70 65 67 70 64 65 65 64 59 55 55 56 68 57 59 62 67 68
93 90 90 85 79 70 72 71 66 60 67 64 58 58 57 56 71 64 58 56 66 68
93 92 92 87 87 82 75 64 64 62 66 62 58 61 60 58 67 70 66 62 64 61
96 93 92 93 93 91 82 71 75 69 66 66 62 64 60 60 62 66 67 66 66 61
Wind_Speed
8 5 5 6 4 4 4 4 4 4 4 4 4 4 4 3 3 4 4 6 5 3
7 8 7 7 6 5 4 4 5 5 5 4 4 4 4 3 3 4 3 4 5 3
8 7 6 6 7 7 6 6 6 6 5 5 4 4 5 3 2 4 2 2 4 3
8 7 7 7 7 7 6 7 7 6 6 6 6 5 5 4 4 5 4 2 4 3
7 7 8 8 8 7 8 6 7 6 6 6 6 6 6 6 5 6 5 4 4 3
8 10 10 9 7 7 7 7 7 7 7 7 6 6 6 6 6 6 6 5 5 4
12 12 10 8 8 8 8 8 7 7 7 7 7 6 6 6 6 6 5 5 5 5
9 8 7 8 8 8 8 9 8 7 7 7 7 6 7 6 6 6 6 5 5 5
7 9 11 10 9 8 9 8 7 9 9 8 7 15 17 11 7 6 6 6 6 6
9 11 12 10 10 12 12 8 11 9 9 10 8 18 19 19 7 7 7 7 6 6
5 8 5 8 11 11 9 12 12 10 10 9 9 20 21 21 7 8 8 9 8 8
5 7 6 11 11 9 7 8 10 8 10 12 10 21 22 18 7 9 10 9 8 8
6 7 8 8 7 6 6 9 8 9 9 15 11 18 23 20 6 9 8 6 8 19
3 5 5 5 5 5 8 7 8 9 8 9 11 11 22 24 10 9 7 7 6 6
Wind_Direction
184 185 184 178 175 181 180 173 174 146 134 121 105 92 85 83 77 74 73 73 66 65
188 187 191 187 176 178 171 173 172 160 147 136 119 114 107 98 88 83 75 77 79 75
191 189 185 174 186 184 180 173 165 164 162 154 145 130 114 105 99 101 73 79 85 62
189 187 182 186 188 185 172 175 173 172 171 171 161 155 144 153 147 129 118 101 113 97
179 179 189 196 191 179 182 178 176 174 177 181 176 171 172 174 161 160 161 162 139 136
193 193 200 201 190 179 176 181 180 178 187 187 184 179 188 183 178 181 182 178 171 171
200 199 196 191 184 182 184 180 188 193 190 188 186 186 187 187 190 192 193 191 189 185
202 191 182 187 188 181 184 195 188 183 195 191 189 194 189 190 194 196 205 207 203 201
181 184 197 193 186 184 197 188 176 196 197 199 204 207 206 194 192 197 201 209 215 212
193 198 201 194 188 199 201 183 201 199 193 207 206 211 213 212 198 201 205 207 207 215
190 206 182 189 205 207 194 196 199 201 201 202 211 214 218 218 189 205 210 210 204 208
179 195 185 203 207 207 197 200 204 201 198 206 218 217 220 220 198 211 220 215 208 205
186 185 198 209 202 197 196 208 201 208 204 214 219 217 219 219 203 217 220 215 211 225
199 206 207 194 184 171 197 201 194 206 206 209 213 219 226 225 215 217 218 219 214 217